New Bern, NC

3:27 AM EDT on July 26, 2017 (GMT -0400)
Craven County Regional

Weather History for KEWN - May, 2014

Change the Weather History Date:

Wednesday, May 14, 2014

  Actual Average Record
Temperature  
Mean Temperature 78 °F 69 °F  
Max Temperature 88 °F 80 °F 97 °F (1956)
Min Temperature 67 °F 58 °F 44 °F (2008)
Degree Days  
Heating Degree Days 0 1  
Month to date heating degree days 0 23  
Since 1 July heating degree days 2632 2690  
Cooling Degree Days 13 5  
Month to date cooling degree days 142 56  
Year to date cooling degree days 227 126  
Growing Degree Days 28 (Base 50)    
Moisture  
Dew Point 66 °F    
Average Humidity 67    
Maximum Humidity 90    
Minimum Humidity 43    
Precipitation  
Precipitation 0.00 in 0.14 in 0.97 in (1979)
Month to date precipitation 0.92 1.75  
Year to date precipitation 16.88 16.99  
Snow  
Snow 0.00 in - - ()
Month to date snowfall 0.0  
Since 1 July snowfall 14.0  
Snow Depth 0.00 in    
Sea Level Pressure  
Sea Level Pressure 30.17 in    
Wind  
Wind Speed 4 mph (SSW)    
Max Wind Speed 15 mph    
Max Gust Speed 21 mph    
Visibility 10 miles    
Events      
T = Trace of Precipitation, MM = Missing Value Source: NWS Daily Summary

Daily Weather History Graph

Daily Weather History Graph

Search for Another Location

Airport or City:

Trip Planner

Search our weather history database for the weather conditions in past years. The results will help you decide how hot, cold, wet, or windy it might be!

Date:

Astronomy

May. 14, 2014 Rise Set
Actual Time 6:05 AM EDT 8:04 PM EDT
Civil Twilight 5:37 AM EDT 8:32 PM EDT
Nautical Twilight 5:03 AM EDT 9:06 PM EDT
Astronomical Twilight 4:26 AM EDT 9:43 PM EDT
Moon 8:08 PM EDT (5/14) 6:00 AM EDT (5/14)
Length of Visible Light 14h 55m
Length of Day
13h 59m
Full, 100% of the Moon is Illuminated
May 14
Full
May 14
Full
May 21
Last Quarter
May 28
New
Jun 5
First Quarter

Hourly Weather History & Observations

Time (EDT) Temp. Heat Index Dew Point Humidity Pressure Visibility Wind Dir Wind Speed Gust Speed Precip Events Conditions
12:54 AM 70.0 °F - 66.9 °F 90% 30.18 in 10.0 mi SW 3.5 mph - N/A   Clear
1:54 AM 69.1 °F - 66.0 °F 90% 30.17 in 10.0 mi SSW 3.5 mph - N/A   Clear
2:54 AM 69.1 °F - 66.0 °F 90% 30.16 in 9.0 mi SW 3.5 mph - N/A   Clear
3:54 AM 69.1 °F - 66.0 °F 90% 30.16 in 9.0 mi Calm Calm - N/A   Clear
4:54 AM 69.1 °F - 66.0 °F 90% 30.17 in 8.0 mi Calm Calm - N/A   Clear
5:54 AM 68.0 °F - 64.9 °F 90% 30.17 in 7.0 mi Calm Calm - N/A   Clear
6:54 AM 69.1 °F - 66.0 °F 90% 30.19 in 6.0 mi SSW 3.5 mph - N/A   Clear
7:54 AM 73.0 °F - 68.0 °F 84% 30.20 in 10.0 mi WSW 4.6 mph - N/A   Clear
8:54 AM 77.0 °F - 69.1 °F 76% 30.21 in 10.0 mi Variable 3.5 mph - N/A   Clear
9:54 AM 81.0 °F 83.8 °F 68.0 °F 65% 30.21 in 10.0 mi WSW 5.8 mph - N/A   Partly Cloudy
11:54 AM 84.0 °F 86.3 °F 66.0 °F 55% 30.21 in 10.0 mi Calm Calm - N/A   Scattered Clouds
12:54 PM 86.0 °F 87.6 °F 64.9 °F 49% 30.19 in 10.0 mi SSW 6.9 mph - N/A   Scattered Clouds
1:54 PM 86.0 °F 88.8 °F 66.9 °F 53% 30.18 in 10.0 mi SSE 6.9 mph - N/A   Mostly Cloudy
2:54 PM 87.1 °F 87.5 °F 62.1 °F 43% 30.16 in 10.0 mi SSW 8.1 mph - N/A   Clear
3:54 PM 86.0 °F 87.6 °F 64.9 °F 49% 30.15 in 10.0 mi South 12.7 mph - N/A   Clear
4:54 PM 82.9 °F 84.0 °F 63.0 °F 51% 30.14 in 10.0 mi SSW 11.5 mph - N/A   Clear
5:54 PM 82.0 °F 83.8 °F 64.9 °F 56% 30.14 in 10.0 mi South 10.4 mph - N/A   Clear
6:54 PM 80.1 °F 81.9 °F 64.9 °F 60% 30.14 in 10.0 mi SSE 8.1 mph - N/A   Partly Cloudy
7:54 PM 77.0 °F - 64.9 °F 66% 30.15 in 10.0 mi South 5.8 mph - N/A   Clear
8:54 PM 73.0 °F - 66.0 °F 79% 30.16 in 10.0 mi Calm Calm - N/A   Clear
9:54 PM 72.0 °F - 66.0 °F 81% 30.18 in 10.0 mi Calm Calm - N/A   Clear
10:54 PM 69.1 °F - 64.9 °F 87% 30.19 in 10.0 mi Calm Calm - N/A   Clear
11:54 PM 68.0 °F - 64.0 °F 87% 30.17 in 9.0 mi Calm Calm - N/A   Clear